Probability
13 19 16 13 19 10 10 6 6 0 0 3 10 6 10 13 6 10 26 61 84 81 68 58 52 48 39 48 52 39 42 23 32 35 29 26 23 23 23 16 19 16 16
10 6 13 16 3 10 10 6 3 3 0 0 3 6 10 13 19 16 16 45 58 71 61 55 58 48 42 39 42 39 32 29 35 32 35 35 32 26 19 19 16 13 13
10 3 3 6 3 6 10 6 6 3 0 0 0 3 3 10 19 13 6 19 52 58 71 68 68 48 42 42 39 39 35 39 39 35 35 29 29 23 32 23 13 13 10
6 6 6 6 6 6 6 3 3 3 3 3 0 0 3 0 3 6 13 6 16 35 58 65 65 65 61 52 45 42 42 35 45 39 35 32 23 26 19 26 16 16 6
10 6 6 6 6 6 3 3 3 3 3 3 3 0 3 3 3 6 3 3 6 10 19 45 61 65 55 55 48 42 45 42 45 45 42 29 26 19 19 19 19 10 3
10 6 10 6 6 6 3 3 3 3 3 3 3 3 3 3 3 3 0 0 0 0 3 10 35 48 48 48 52 45 35 32 45 35 35 19 23 23 16 16 13 13 3
13 6 10 6 6 6 3 3 3 3 3 0 0 0 0 0 0 3 0 0 0 0 0 0 3 10 23 39 45 42 42 52 42 39 39 32 29 29 23 16 10 6 0
10 10 6 6 6 6 3 3 3 3 3 0 0 0 0 0 0 0 0 0 0 0 0 0 0 0 6 3 10 23 39 42 39 45 39 45 42 32 19 13 10 3 3
10 10 10 10 6 3 3 3 3 3 3 0 0 0 0 0 0 0 0 0 0 0 0 3 3 0 0 3 3 6 19 32 35 35 39 42 32 16 19 16 13 6 6
6 6 6 6 6 0 0 0 0 0 0 0 0 0 0 0 0 0 0 0 0 0 0 0 0 6 6 6 0 0 0 16 26 29 35 35 35 19 13 10 13 10 6
6 6 6 3 3 0 0 0 0 0 0 0 0 0 0 0 0 0 0 0 0 0 0 0 0 3 3 6 6 0 0 6 13 23 23 32 26 16 16 16 10 6 3
6 3 3 3 3 3 0 0 0 0 0 0 0 0 0 0 0 0 0 0 0 0 0 0 0 0 0 3 3 0 0 0 0 3 10 10 16 16 19 13 13 6 6
3 6 6 3 3 0 0 0 0 0 0 0 0 0 0 0 0 0 0 0 0 0 0 0 0 0 0 0 3 0 3 0 0 0 0 3 3 6 10 13 10 10 6
6 0 3 0 0 3 0 0 0 0 0 0 0 0 0 0 0 0 0 0 0 0 0 0 0 0 0 0 0 0 0 0 0 0 0 0 0 0 0 3 3 3 3
6 6 6 3 3 3 0 0 0 0 0 0 0 0 0 0 0 0 0 0 0 0 0 0 0 0 0 0 0 0 0 0 0 0 0 0 0 0 0 0 0 0 0
6 6 6 6 6 6 0 0 0 0 0 0 0 0 0 0 0 0 0 0 0 0 0 0 0 0 0 0 0 0 0 0 0 0 0 0 0 0 0 0 0 0 0
10 6 10 10 6 6 3 3 3 0 3 0 0 0 0 0 0 0 0 0 0 0 0 0 0 0 0 0 0 0 0 0 0 0 0 0 0 0 0 0 0 0 0
10 10 10 3 3 0 0 3 3 3 3 3 0 0 0 0 0 0 0 0 0 0 0 0 0 0 0 0 0 0 0 0 0 0 0 0 0 0 0 0 0 0 0
13 6 3 3 3 3 6 3 3 3 3 3 0 0 0 0 0 0 0 0 0 0 0 0 0 0 0 0 0 0 0 0 0 0 0 0 0 0 0 0 0 0 0
6 6 6 3 6 6 6 6 3 0 0 0 0 0 0 0 0 0 0 0 0 0 0 0 0 0 0 0 0 0 0 0 0 0 0 0 0 0 0 0 0 0 0
6 3 3 3 3 3 0 0 0 0 3 0 0 0 0 0 0 0 0 0 0 0 0 0 0 0 0 0 0 0 0 0 0 0 0 0 0 0 0 0 0 0 0
6 6 6 3 0 0 0 0 0 0 0 0 0 0 0 0 0 0 0 0 0 0 0 0 0 0 0 0 0 0 0 0 0 0 0 0 0 0 0 0 0 0 0
3 3 0 0 0 0 0 0 0 0 0 0 0 0 0 0 0 0 0 0 0 0 0 0 0 0 0 0 0 0 0 0 0 0 0 0 0 0 0 0 0 0 0
0 0 0 0 0 0 0 0 0 0 0 0 0 0 0 0 0 0 0 0 0 0 0 0 0 0 0 0 0 0 0 0 0 0 0 0 0 0 0 0 0 0 0
0 0 0 0 0 0 0 0 0 0 0 0 0 0 0 0 0 0 0 0 0 0 0 0 0 0 0 0 0 0 0 0 0 0 0 0 0 0 0 0 0 0 0
0 0 0 0 0 0 0 0 0 0 0 0 0 0 0 0 0 0 0 0 0 0 0 0 0 0 0 0 0 0 0 0 0 0 0 0 0 0 0 0 0 0 0
Height
5892 5893 5894 5895 5896 5897 5897 5898 5899 5899 5900 5900 5901 5901 5902 5902 5902 5903 5903 5903 5903 5904 5904 5904 5904 5904 5904 5904 5904 5904 5904 5905 5905 5905 5905 5904 5904 5904 5903 5903 5903 5902 5902
5892 5893 5894 5895 5896 5897 5897 5898 5899 5899 5900 5900 5901 5901 5901 5902 5902 5902 5902 5902 5902 5903 5903 5903 5903 5903 5903 5903 5903 5903 5903 5903 5903 5903 5903 5903 5903 5902 5902 5902 5901 5901 5901
5892 5892 5893 5894 5896 5897 5897 5898 5899 5899 5899 5900 5900 5900 5901 5901 5901 5901 5902 5902 5902 5902 5902 5902 5902 5902 5902 5902 5902 5902 5902 5902 5902 5901 5901 5901 5901 5901 5901 5900 5900 5899 5899
5891 5892 5893 5894 5895 5896 5897 5897 5898 5898 5899 5900 5900 5900 5900 5900 5901 5901 5901 5901 5901 5901 5901 5901 5901 5901 5901 5900 5900 5900 5900 5900 5899 5899 5899 5899 5899 5899 5899 5898 5898 5897 5897
5891 5892 5893 5894 5895 5895 5896 5897 5897 5898 5898 5899 5899 5899 5899 5899 5899 5900 5900 5900 5900 5900 5900 5900 5899 5899 5899 5899 5898 5898 5898 5897 5897 5897 5897 5897 5897 5896 5896 5896 5895 5895 5894
5892 5892 5893 5893 5894 5895 5895 5896 5897 5897 5897 5898 5898 5898 5898 5898 5898 5898 5898 5898 5898 5898 5898 5898 5897 5897 5897 5896 5896 5896 5895 5895 5895 5894 5894 5894 5894 5894 5893 5893 5892 5892 5891
5891 5892 5892 5893 5893 5894 5895 5895 5895 5896 5896 5896 5896 5896 5896 5896 5896 5896 5896 5896 5896 5895 5895 5895 5895 5895 5895 5894 5894 5893 5893 5892 5892 5892 5891 5891 5891 5890 5890 5890 5889 5889 5888
5890 5891 5891 5892 5892 5893 5893 5894 5894 5894 5895 5895 5895 5894 5895 5895 5894 5894 5894 5894 5893 5893 5893 5893 5893 5892 5892 5892 5891 5891 5890 5889 5889 5888 5888 5888 5888 5887 5886 5886 5886 5885 5885
5889 5890 5890 5890 5891 5891 5892 5892 5892 5892 5892 5893 5893 5893 5892 5892 5892 5892 5891 5891 5891 5891 5890 5890 5890 5889 5889 5888 5888 5887 5887 5886 5886 5885 5884 5884 5883 5883 5882 5882 5881 5881 5880
5888 5888 5888 5888 5889 5889 5890 5890 5890 5890 5890 5890 5890 5890 5890 5890 5890 5889 5889 5888 5888 5888 5887 5887 5886 5886 5886 5885 5884 5883 5883 5882 5881 5881 5880 5880 5879 5878 5878 5877 5877 5876 5875
5887 5887 5887 5887 5887 5887 5887 5887 5887 5887 5887 5887 5887 5887 5887 5887 5886 5886 5886 5885 5885 5884 5884 5884 5883 5882 5882 5881 5880 5880 5879 5878 5877 5876 5876 5875 5874 5874 5873 5872 5871 5871 5870
5885 5885 5885 5884 5884 5884 5884 5884 5884 5884 5884 5884 5884 5884 5884 5884 5883 5883 5882 5882 5881 5881 5880 5880 5879 5878 5878 5877 5876 5875 5874 5873 5872 5872 5871 5870 5869 5868 5867 5867 5866 5865 5864
5883 5883 5882 5882 5882 5881 5881 5881 5881 5881 5880 5881 5881 5880 5880 5880 5879 5879 5878 5878 5877 5877 5876 5875 5875 5874 5873 5873 5872 5871 5869 5868 5867 5866 5865 5865 5864 5863 5862 5861 5860 5859 5858
5881 5881 5880 5880 5879 5878 5878 5878 5878 5877 5877 5877 5876 5876 5876 5875 5875 5874 5874 5873 5873 5873 5872 5871 5870 5869 5869 5868 5867 5866 5865 5864 5862 5861 5860 5859 5858 5857 5856 5855 5854 5853 5851
5879 5879 5878 5877 5877 5876 5875 5875 5874 5874 5874 5873 5872 5872 5871 5871 5870 5870 5869 5868 5868 5868 5867 5866 5865 5865 5864 5863 5861 5860 5859 5858 5857 5856 5855 5854 5853 5851 5850 5848 5847 5845 5844
5877 5876 5875 5874 5874 5873 5873 5872 5872 5871 5870 5869 5868 5868 5867 5867 5866 5865 5864 5863 5863 5863 5862 5862 5860 5859 5858 5857 5856 5855 5854 5853 5852 5850 5849 5848 5846 5845 5843 5842 5840 5838 5837
5876 5875 5873 5872 5871 5870 5870 5869 5869 5868 5867 5866 5865 5864 5863 5862 5862 5861 5860 5859 5858 5858 5858 5857 5856 5854 5853 5852 5851 5850 5848 5847 5846 5844 5842 5841 5839 5838 5836 5834 5833 5831 5830
5874 5873 5871 5870 5869 5868 5867 5866 5865 5864 5863 5862 5861 5860 5859 5858 5857 5856 5855 5854 5854 5853 5852 5852 5850 5849 5848 5847 5845 5844 5842 5840 5839 5837 5835 5834 5832 5830 5829 5827 5825 5823 5822
5872 5870 5869 5867 5866 5865 5864 5863 5862 5861 5860 5859 5857 5856 5855 5854 5852 5851 5850 5849 5849 5848 5847 5846 5845 5844 5842 5841 5839 5838 5836 5834 5832 5830 5828 5827 5825 5823 5821 5819 5817 5815 5814
5869 5867 5866 5865 5864 5863 5862 5860 5859 5858 5856 5855 5854 5852 5851 5850 5848 5847 5846 5845 5844 5843 5842 5841 5839 5838 5836 5834 5833 5831 5829 5827 5825 5823 5822 5820 5817 5816 5814 5812 5810 5808 5806
5866 5865 5863 5862 5861 5860 5858 5857 5855 5854 5853 5851 5850 5848 5847 5846 5844 5843 5842 5840 5839 5838 5836 5835 5833 5832 5830 5828 5826 5824 5822 5820 5818 5816 5814 5812 5810 5808 5806 5803 5801 5799 5797
5864 5862 5861 5859 5858 5857 5855 5853 5852 5850 5848 5847 5845 5844 5842 5841 5840 5838 5837 5835 5834 5832 5831 5829 5828 5826 5824 5822 5819 5817 5815 5813 5811 5809 5807 5805 5803 5800 5798 5795 5793 5790 5788
5861 5859 5858 5856 5855 5853 5851 5849 5847 5846 5844 5842 5841 5839 5837 5836 5835 5833 5832 5830 5829 5827 5825 5824 5822 5820 5817 5815 5813 5810 5808 5806 5804 5802 5800 5797 5795 5792 5790 5787 5784 5782 5779
5858 5856 5855 5853 5851 5849 5847 5845 5843 5842 5840 5838 5836 5834 5833 5831 5830 5828 5826 5825 5823 5821 5819 5817 5815 5813 5811 5808 5806 5804 5801 5799 5797 5794 5792 5790 5787 5784 5781 5779 5776 5773 5770
5855 5853 5851 5849 5847 5845 5843 5841 5839 5837 5835 5833 5832 5830 5828 5826 5824 5822 5820 5819 5817 5815 5812 5810 5808 5806 5804 5801 5799 5797 5794 5792 5789 5786 5784 5781 5778 5776 5773 5770 5767 5764 5761
5851 5849 5847 5845 5843 5841 5839 5837 5835 5833 5831 5829 5827 5825 5823 5821 5818 5816 5814 5812 5810 5808 5806 5804 5801 5799 5797 5794 5792 5789 5787 5784 5781 5779 5776 5773 5770 5767 5764 5761 5758 5755 5752
Wind_Speed
2 2 2 2 3 3 2 2 1 1 1 1 0 1 1 1 1 1 1 2 2 3 3 3 3 3 3 3 4 4 5 5 5 5 5 5 6 6 6 6 6 6 6
2 2 3 3 3 3 2 2 1 1 1 1 0 1 1 2 2 2 3 3 3 3 4 4 4 4 4 5 5 5 6 6 6 7 7 7 7 7 7 7 7 7 8
1 2 4 4 3 3 3 3 2 2 2 2 2 2 2 3 3 4 4 4 4 4 5 5 5 6 6 6 7 7 7 8 8 8 9 9 9 8 8 9 9 9 10
2 3 4 4 3 4 4 4 3 2 2 3 3 3 3 4 4 4 5 5 5 6 6 6 7 7 8 8 8 8 9 10 10 10 10 10 10 10 10 11 11 11 12
2 3 3 4 4 4 4 5 4 4 3 4 4 5 5 5 5 5 6 6 7 7 8 8 8 9 10 10 10 10 10 10 11 11 11 11 11 11 12 12 12 12 13
2 3 4 4 4 4 4 5 6 5 5 6 6 6 7 7 7 7 7 8 8 9 9 9 10 10 10 11 12 12 12 12 12 12 13 13 13 13 14 13 14 14 14
3 4 4 5 5 5 5 6 7 7 7 7 7 7 8 9 9 9 9 9 10 10 10 10 10 11 12 12 13 13 13 13 13 14 14 14 14 15 15 15 15 15 16
4 5 5 6 6 6 6 7 8 8 8 8 9 9 9 10 10 11 11 11 11 10 10 11 12 13 13 13 13 14 14 14 15 16 16 16 17 17 17 17 17 17 18
5 5 6 7 7 7 8 8 8 9 9 10 10 10 10 11 11 11 12 12 12 12 12 12 13 14 14 14 15 15 16 16 17 17 18 18 18 19 19 19 19 20 20
6 6 7 7 8 9 9 10 10 10 10 10 11 12 12 12 12 13 14 14 14 14 14 14 14 14 15 16 16 17 17 18 18 18 19 19 20 20 20 20 20 21 22
8 8 8 9 10 10 11 11 11 12 12 13 13 13 13 14 14 14 15 15 15 15 15 16 16 16 17 18 18 19 19 19 19 19 19 20 21 21 22 22 21 22 23
8 8 9 10 10 11 12 13 13 14 14 14 14 14 14 15 15 15 15 15 16 17 17 18 17 18 19 19 19 20 21 21 21 21 21 22 22 22 23 23 23 23 24
7 8 9 10 11 11 12 13 14 14 15 15 15 15 15 15 16 17 17 17 18 19 19 19 19 20 20 20 20 21 21 21 22 22 22 23 23 24 24 24 25 25 26
8 8 9 10 11 11 13 13 14 14 15 15 16 17 17 17 18 18 18 19 19 20 20 20 20 20 21 21 21 22 22 21 22 22 22 23 24 24 24 26 27 27 28
8 9 10 10 10 11 12 13 13 13 14 15 16 16 17 18 18 18 19 19 19 19 19 20 21 21 21 21 22 22 22 22 22 22 23 24 24 25 25 26 28 29 30
8 8 9 9 10 10 11 12 12 12 13 14 15 16 16 17 17 17 17 17 18 19 20 21 21 22 23 23 23 23 22 22 23 24 25 26 27 27 28 28 29 29 29
9 9 9 10 10 11 11 11 12 13 13 14 16 16 16 16 17 17 18 18 18 19 19 20 21 22 22 23 23 23 24 25 25 26 27 27 28 29 30 29 29 29 30
10 10 10 10 11 11 11 11 12 12 13 14 15 15 16 17 17 18 18 18 19 19 19 19 20 21 22 23 23 24 26 26 27 27 27 28 29 29 30 30 30 30 31
11 11 11 11 12 12 12 12 12 13 13 14 15 15 16 17 18 18 18 18 19 19 20 20 21 22 22 23 25 25 26 26 27 27 27 28 29 29 30 30 30 30 31
12 12 12 12 13 13 13 13 13 14 14 15 15 16 16 16 16 17 17 18 19 20 21 21 22 22 23 24 25 26 26 27 27 27 28 28 28 29 30 31 31 31 32
13 13 13 13 13 14 14 15 15 16 17 16 16 17 17 17 17 17 18 19 20 21 21 22 22 23 24 26 26 27 28 28 28 28 29 29 29 29 30 31 31 32 33
13 13 13 14 15 15 15 16 16 16 17 17 18 18 18 18 18 19 19 20 21 21 22 23 23 24 25 26 28 28 29 29 28 28 29 28 29 30 31 31 32 32 33
15 15 15 15 15 16 16 17 17 17 18 19 19 19 19 19 20 20 21 21 22 22 23 24 25 25 26 27 28 28 28 28 28 29 30 30 30 31 32 32 32 33 33
16 17 17 17 17 17 17 18 18 18 19 19 19 20 20 20 21 22 22 23 24 24 24 25 25 26 27 28 28 28 27 28 29 30 31 31 31 32 33 33 33 34 34
18 18 18 18 18 18 18 19 19 19 19 19 20 20 21 21 22 23 23 24 24 25 26 26 27 27 28 28 28 28 29 30 31 31 31 32 32 33 33 33 33 34 34
19 19 19 19 20 20 20 20 20 20 20 20 21 21 22 23 23 24 24 25 25 26 27 28 28 29 29 29 29 30 31 31 31 32 32 33 33 33 33 33 33 34 34
Wind_Direction
173 165 163 174 172 170 162 148 134 148 147 139 160 256 283 285 290 292 290 287 271 270 274 277 274 273 274 273 271 263 268 273 272 279 283 289 293 296 297 301 302 303 297
173 180 173 174 185 188 180 179 179 173 167 196 277 257 269 281 286 288 291 286 275 268 269 277 277 277 276 275 275 270 272 274 276 278 278 281 287 291 291 292 295 294 293
176 189 184 184 191 198 199 198 204 221 232 254 269 272 276 276 280 284 287 286 276 272 273 277 280 278 279 276 274 273 272 275 277 278 278 279 280 285 288 287 290 291 291
184 189 188 195 203 207 213 211 218 238 251 262 270 276 282 286 286 287 284 281 278 277 278 278 277 278 279 277 274 273 274 275 274 275 276 278 277 279 282 283 287 288 289
192 194 199 203 212 217 221 226 233 246 260 270 273 275 279 284 286 288 287 283 280 279 280 280 276 277 282 279 274 273 277 278 274 275 276 276 277 279 279 280 283 287 288
216 216 209 214 219 225 231 239 242 251 261 271 274 273 273 277 280 284 284 282 280 278 279 277 276 278 281 279 276 274 277 279 277 277 276 276 278 279 277 279 281 284 285
237 239 232 234 237 239 241 247 250 254 261 270 272 273 271 271 274 278 280 280 279 279 277 276 276 278 280 280 279 277 279 279 277 276 275 275 277 278 278 278 279 281 281
242 245 249 248 250 251 253 253 253 256 263 268 270 271 273 276 278 279 277 275 277 277 275 274 275 279 282 279 280 279 280 280 279 278 276 276 277 277 277 276 278 280 280
263 259 260 256 257 259 257 262 263 262 263 266 269 272 274 277 280 281 281 275 274 272 272 275 276 278 279 279 279 279 279 280 280 279 277 277 277 278 277 277 278 278 280
272 270 264 259 261 265 265 265 265 265 265 266 268 270 272 275 277 279 280 277 276 277 276 275 276 276 279 280 280 282 281 282 280 278 278 278 279 278 279 280 280 279 279
275 272 269 266 266 266 269 268 263 265 266 268 270 272 273 274 277 278 278 277 277 278 278 278 277 277 281 283 283 284 282 282 282 279 278 277 278 278 279 279 281 281 280
280 279 273 268 268 269 269 268 267 270 269 268 270 273 273 274 276 278 277 276 276 278 279 279 278 280 283 285 285 283 284 284 281 280 279 278 278 278 278 278 280 280 280
286 287 283 275 273 272 272 271 270 271 272 272 271 271 273 275 277 277 277 274 274 276 278 278 278 281 283 283 285 285 285 287 285 283 282 279 278 278 278 279 280 280 280
292 289 287 279 279 278 279 281 278 275 275 275 275 272 273 275 277 278 277 275 275 276 279 279 279 280 281 282 283 284 285 286 286 286 285 281 281 281 280 280 279 279 279
300 292 288 286 285 285 281 279 279 281 281 280 278 276 277 278 279 281 282 278 276 276 278 279 280 278 279 281 281 282 283 284 285 285 284 285 284 284 284 283 281 279 279
312 300 294 292 288 288 289 285 284 287 288 285 280 280 281 281 281 282 284 281 278 278 278 278 280 280 280 281 281 283 284 287 286 286 286 284 285 284 284 284 282 280 281
311 307 300 297 293 293 291 289 289 290 290 290 286 282 282 282 282 281 282 281 278 279 280 279 280 281 283 284 286 285 286 287 287 286 285 284 283 283 284 282 282 282 282
312 309 307 302 299 297 294 292 291 291 290 291 290 286 284 283 282 282 281 281 280 281 281 282 283 282 282 283 286 288 288 287 287 287 286 285 283 283 285 284 283 283 284
309 304 305 304 302 298 296 295 294 292 292 292 292 291 290 289 284 283 282 282 282 283 283 285 285 285 283 284 287 288 288 289 289 288 289 288 286 285 287 288 289 287 287
314 308 304 305 303 298 296 296 296 296 294 293 293 292 292 291 288 287 284 285 287 288 288 289 288 288 287 287 289 289 289 290 290 290 291 291 291 290 290 290 290 288 288
317 313 307 307 307 304 300 297 296 295 295 294 293 292 292 291 290 289 287 288 289 290 290 291 290 289 290 290 291 291 290 290 291 291 291 292 292 292 292 292 291 290 289
318 315 311 308 308 306 304 302 299 298 297 295 293 292 291 291 290 290 290 291 291 292 291 291 291 292 293 293 291 290 291 290 291 292 293 294 294 294 294 293 293 291 290
317 315 312 309 306 306 306 304 300 298 297 296 294 292 291 289 290 291 292 292 292 292 292 293 292 292 293 293 291 292 293 292 292 294 294 295 296 295 295 294 294 293 292
313 313 310 309 306 305 304 303 301 299 297 297 296 294 292 290 290 291 290 291 292 292 293 294 294 294 295 295 295 295 294 294 295 296 295 295 295 295 295 295 295 294 294
312 311 309 307 305 304 304 304 301 299 297 297 296 296 295 294 293 293 292 292 291 291 292 292 293 294 296 296 296 295 295 295 295 296 296 296 297 297 297 297 297 296 296
309 309 307 306 305 303 303 303 302 299 298 297 296 295 295 295 295 295 294 293 292 291 291 292 293 294 296 296 295 294 294 294 295 296 297 298 299 299 299 300 300 299 298